This demonstration page uses our WeatherBlox Daily Observations layout. Learn more.

Left ArrowRight Arrow

Hourly Observations for March 12, 2015

Temp ( °F °C ) Dew Point ( °F °C ) Humidity (%) Winds ( mph kmh ) Pressure ( in mb ) Visibility ( mi km ) Precip ( " mm )
12:16 am 00:16 Mostly Cloudy 36 2 N/A N/A NE 7 11 30.45 1031 2 3 N/A
12:36 am 00:36 Cloudy 34 1 N/A N/A N N/A 30.45 1031 0 0 N/A
12:55 am 00:55 Cloudy 34 1 N/A N/A NNE 3 6 30.45 1031 5 8 N/A
1:16 am 01:16 Cloudy 32 undefined N/A N/A NNE 5 7 30.45 1031 5 8 N/A
1:36 am 01:36 Cloudy 32 undefined N/A N/A N N/A 30.45 1031 5 8 N/A
1:55 am 01:55 Cloudy 32 undefined N/A N/A N N/A 30.45 1031 5 8 N/A
2:16 am 02:16 Cloudy 32 undefined N/A N/A NNE 5 7 30.45 1031 0 0 N/A
2:36 am 02:36 Cloudy 30 -1 N/A N/A NNE 7 11 30.45 1031 0 0 N/A
2:55 am 02:55 Cloudy 30 -1 N/A N/A NNE 6 9 30.45 1031 0 0 N/A
3:16 am 03:16 Cloudy 30 -1 N/A N/A NNE 5 7 30.48 1032 0 0 N/A
3:35 am 03:35 Cloudy 30 -1 N/A N/A NNE 5 7 30.48 1032 0 0 N/A
3:55 am 03:55 Cloudy 28 -2 N/A N/A NNE 3 6 30.50 1033 1 1 N/A
4:16 am 04:16 Cloudy 28 -2 N/A N/A NNE 3 6 30.50 1033 0 0 N/A
4:35 am 04:35 Mostly Cloudy 28 -2 N/A N/A NE 5 7 30.50 1033 2 2 N/A
4:55 am 04:55 Clear 28 -2 N/A N/A NNE 5 7 30.50 1033 3 4 N/A
5:16 am 05:16 Clear 28 -2 N/A N/A NNE 3 6 30.50 1033 3 4 N/A
5:35 am 05:35 Clear 28 -2 N/A N/A NNE 6 9 30.50 1033 3 5 N/A
5:55 am 05:55 Clear 28 -2 N/A N/A NNE 7 11 30.50 1033 3 5 N/A
6:16 am 06:16 Clear 28 -2 N/A N/A N N/A 30.50 1033 3 5 N/A
6:35 am 06:35 Clear 28 -2 N/A N/A N N/A 30.50 1033 3 5 N/A
6:56 am 06:56 Clear 28 -2 N/A N/A N N/A 30.50 1033 4 6 N/A
7:16 am 07:16 Clear 27 -3 N/A N/A E 3 6 30.50 1033 3 5 N/A
7:35 am 07:35 Clear 28 -2 N/A N/A N N/A 30.53 1034 4 6 N/A
7:56 am 07:56 Clear 30 -1 N/A N/A ESE 6 9 30.50 1033 5 8 N/A
8:15 am 08:15 Sunny 32 undefined N/A N/A E 6 9 30.50 1033 5 8 N/A
8:35 am 08:35 Sunny 32 undefined N/A N/A E 8 13 30.50 1033 5 8 N/A
8:56 am 08:56 Sunny 34 1 N/A N/A E 9 15 30.50 1033 7 11 N/A
9:15 am 09:15 Sunny 36 2 36 2 100 100 ESE 9 15 30.50 1033 5 8 N/A
9:35 am 09:35 Sunny 36 2 36 2 100 100 ESE 10 17 30.53 1034 5 8 N/A
9:56 am 09:56 Sunny 37 3 36 2 93 93 E 12 19 30.53 1034 5 8 N/A
10:15 am 10:15 Sunny 39 4 28 -2 65 65 E 8 13 30.53 1034 5 8 N/A
10:35 am 10:35 Sunny 41 5 27 -3 57 57 E 10 17 30.53 1034 7 11 N/A
10:56 am 10:56 Sunny 43 6 27 -3 53 53 E 13 20 30.53 1034 7 11 N/A
11:15 am 11:15 Sunny 43 6 27 -3 53 53 E 10 17 30.56 1035 10 16 N/A
11:36 am 11:36 Sunny 45 7 27 -3 49 49 ESE 12 19 30.56 1035 10 16 N/A
11:56 am 11:56 Sunny 46 8 27 -3 46 46 ESE 14 22 30.53 1034 10 16 N/A
12:15 pm 12:15 Sunny 48 9 27 -3 43 43 ESE 20 31 30.53 1034 10 16 N/A
12:36 pm 12:36 Sunny 48 9 25 -4 40 40 ESE 15 24 30.53 1034 10 16 N/A
12:56 pm 12:56 Sunny 48 9 25 -4 40 40 ESE 16 26 30.50 1033 10 16 N/A
1:15 pm 13:15 Sunny 50 10 25 -4 37 37 ESE 18 30 30.50 1033 10 16 N/A
1:36 pm 13:36 Sunny 52 11 27 -3 38 38 ESE 13 20 30.50 1033 10 16 N/A
1:55 pm 13:55 Sunny 52 11 27 -3 38 38 E 12 19 30.50 1033 10 16 N/A
2:15 pm 14:15 Sunny 52 11 23 -5 32 32 ESE 16 26 30.48 1032 10 16 N/A
2:36 pm 14:36 Sunny 52 11 25 -4 35 35 ESE 14 22 30.48 1032 10 16 N/A
2:55 pm 14:55 Sunny 54 12 25 -4 33 33 ESE 12 19 30.45 1031 10 16 N/A
3:15 pm 15:15 Sunny 54 12 25 -4 33 33 E 12 19 30.45 1031 10 16 N/A
3:36 pm 15:36 Sunny 54 12 25 -4 33 33 ESE 12 19 30.45 1031 10 16 N/A
3:55 pm 15:55 Sunny 54 12 23 -5 30 30 ESE 13 20 30.45 1031 10 16 N/A
4:16 pm 16:16 Sunny 54 12 25 -4 33 33 E 13 20 30.42 1030 10 16 N/A
4:36 pm 16:36 Sunny 55 13 25 -4 31 31 E 15 24 30.42 1030 10 16 N/A
4:55 pm 16:55 Sunny 55 13 23 -5 28 28 E 12 19 30.42 1030 10 16 N/A
5:16 pm 17:16 Sunny 55 13 25 -4 31 31 E 13 20 30.42 1030 10 16 N/A
5:36 pm 17:36 Sunny 55 13 25 -4 31 31 ENE 14 22 30.42 1030 10 16 N/A
5:55 pm 17:55 Sunny 55 13 23 -5 28 28 E 12 19 30.39 1029 10 16 N/A
6:16 pm 18:16 Sunny 55 13 19 -7 24 24 E 14 22 30.39 1029 10 16 N/A
6:36 pm 18:36 Sunny 54 12 23 -5 30 30 E 12 19 30.39 1029 10 16 N/A
6:55 pm 18:55 Sunny 52 11 23 -5 32 32 E 10 17 30.39 1029 10 16 N/A
7:16 pm 19:16 Sunny 50 10 23 -5 35 35 E 8 13 30.39 1029 10 16 N/A
7:36 pm 19:36 Sunny 46 8 25 -4 43 43 E 9 15 30.39 1029 10 16 N/A
7:55 pm 19:55 Clear 45 7 25 -4 46 46 E 8 13 30.39 1029 10 16 N/A
8:16 pm 20:16 Clear 41 5 23 -5 49 49 E 7 11 30.42 1030 10 16 N/A
8:36 pm 20:36 Clear 39 4 25 -4 56 56 ENE 9 15 30.42 1030 10 16 N/A
8:55 pm 20:55 Clear 39 4 23 -5 52 52 E 7 11 30.42 1030 10 16 N/A
9:16 pm 21:16 Clear 39 4 25 -4 56 56 E 7 11 30.42 1030 10 16 N/A
9:36 pm 21:36 Clear 39 4 23 -5 52 52 E 8 13 30.42 1030 10 16 N/A
9:55 pm 21:55 Clear 39 4 23 -5 52 52 E 8 13 30.42 1030 10 16 N/A
10:16 pm 22:16 Clear 37 3 23 -5 56 56 E 6 9 30.42 1030 10 16 N/A
10:35 pm 22:35 Clear 37 3 21 -6 52 52 E 6 9 30.42 1030 10 16 N/A
10:55 pm 22:55 Clear 37 3 21 -6 52 52 E 7 11 30.42 1030 10 16 N/A
11:16 pm 23:16 Clear 36 2 21 -6 56 56 E 8 13 30.39 1029 10 16 N/A
11:36 pm 23:36 Clear 36 2 21 -6 56 56 E 8 13 30.39 1029 10 16 N/A
11:55 pm 23:55 Clear 37 3 21 -6 52 52 E 8 13 30.39 1029 10 16 N/A

Powered by AerisWeather